Karlovy Vary, Czech Republic

11:15 PM CEST on October 18, 2017 (GMT +0200)
Karlovy Vary

Weather History for LKKV - March, 2013

Change the Weather History Date:

Friday, March 1, 2013

  Actual Average (EDQM) Record (EDQM)
Temperature  
Mean Temperature 30 °F -  
Max Temperature 35 °F 35 °F 51 °F (1997)
Min Temperature 24 °F 26 °F 3 °F (2005)
Degree Days  
Heating Degree Days 34    
Moisture  
Dew Point 26 °F    
Average Humidity 85    
Maximum Humidity 100    
Minimum Humidity 70    
Precipitation  
Precipitation 0.00 in - - ()
Sea Level Pressure  
Sea Level Pressure 30.10 in    
Wind  
Wind Speed 7 mph ()    
Max Wind Speed 10 mph    
Max Gust Speed -    
Visibility 5.2 miles    
Events      
Averages and records for this station are not official NWS values.
T = Trace of Precipitation, MM = Missing Value Source: Averaged Metar Reports

Daily Weather History Graph

Daily Weather History Graph

Search for Another Location

Airport or City:

Trip Planner

Search our weather history database for the weather conditions in past years. The results will help you decide how hot, cold, wet, or windy it might be!

Date:

Astronomy

Mar. 01, 2013 Rise Set
Actual Time 6:51 AM CET 5:50 PM CET
Civil Twilight 6:19 AM CET 6:22 PM CET
Nautical Twilight 5:41 AM CET 7:00 PM CET
Astronomical Twilight 5:04 AM CET 7:38 PM CET
Moon 10:36 PM CET (3/1) 7:59 AM CET (3/1)
Length of Visible Light 12h 03m
Length of Day
10h 58m
Waning Gibbous, 85% of the Moon is Illuminated
Mar 1
Waning Gibbous
Mar 4
Last Quarter
Mar 11
New
Mar 19
First Quarter
Mar 27
Full

Hourly Weather History & Observations

Time (CET) Temp. Windchill Dew Point Humidity Pressure Visibility Wind Dir Wind Speed Gust Speed Precip Events Conditions
12:00 AM 30.2 °F 23.4 °F 28.4 °F 93% 30.12 in 1.2 mi WSW 6.9 mph - N/A   Overcast
1:00 AM 28.4 °F 20.4 °F 28.4 °F 100% 30.12 in 3.7 mi West 8.1 mph - N/A   Overcast
2:00 AM 28.4 °F 20.4 °F 26.6 °F 93% 30.12 in 5.0 mi West 8.1 mph - N/A   Overcast
3:00 AM 28.4 °F 20.4 °F 26.6 °F 93% 30.09 in 4.3 mi West 8.1 mph - N/A   Overcast
4:00 AM 28.4 °F 19.7 °F 26.6 °F 93% 30.09 in 3.7 mi West 9.2 mph - N/A   Overcast
5:00 AM 28.4 °F 19.7 °F 26.6 °F 93% 30.09 in 4.3 mi West 9.2 mph - N/A   Overcast
6:00 AM 28.4 °F 20.4 °F 26.6 °F 93% 30.09 in 4.3 mi WSW 8.1 mph - N/A   Overcast
7:00 AM 28.4 °F 19.7 °F 26.6 °F 93% 30.06 in 3.7 mi West 9.2 mph - N/A   Overcast
7:30 AM 28.4 °F 19.7 °F 26.6 °F 93% 30.09 in 1.9 mi West 9.2 mph - N/A   Overcast
8:00 AM 28.4 °F 21.2 °F 26.6 °F 93% 30.09 in 1.9 mi WSW 6.9 mph - N/A   Overcast
8:30 AM 28.4 °F 19.7 °F 26.6 °F 93% 30.09 in 1.9 mi West 9.2 mph - N/A   Overcast
9:00 AM 28.4 °F 19.1 °F 26.6 °F 93% 30.09 in 3.1 mi West 10.4 mph - N/A   Overcast
9:30 AM 28.4 °F 19.7 °F 26.6 °F 93% 30.09 in 4.3 mi West 9.2 mph - N/A   Overcast
10:00 AM 30.2 °F 23.4 °F 26.6 °F 86% 30.09 in 6.2 mi WSW 6.9 mph - N/A   Mostly Cloudy
10:30 AM 30.2 °F 24.3 °F 26.6 °F 86% 30.09 in 6.2 mi WSW 5.8 mph - N/A   Mostly Cloudy
11:00 AM 30.2 °F 23.4 °F 26.6 °F 86% 30.09 in 6.2 mi WSW 6.9 mph - N/A   Mostly Cloudy
11:30 AM 32.0 °F 26.4 °F 28.4 °F 87% 30.09 in 6.2 mi WSW 5.8 mph - N/A   Mostly Cloudy
12:00 PM 32.0 °F 26.4 °F 26.6 °F 80% 30.09 in 6.2 mi West 5.8 mph - N/A   Mostly Cloudy
12:30 PM 32.0 °F 26.4 °F 26.6 °F 80% 30.09 in 6.2 mi WSW 5.8 mph - N/A   Mostly Cloudy
1:00 PM 33.8 °F 27.7 °F 28.4 °F 81% 30.09 in 6.2 mi West 6.9 mph - N/A   Mostly Cloudy
1:30 PM 35.6 °F 29.2 °F 28.4 °F 75% 30.09 in 6.2 mi West 8.1 mph - N/A   Mostly Cloudy
2:00 PM 33.8 °F 27.7 °F 28.4 °F 81% 30.09 in 6.2 mi West 6.9 mph - N/A   Mostly Cloudy
2:30 PM 33.8 °F 27.7 °F 28.4 °F 81% 30.09 in 6.2 mi West 6.9 mph - N/A   Mostly Cloudy
3:00 PM 33.8 °F 28.6 °F 26.6 °F 75% 30.06 in 6.2 mi WSW 5.8 mph - N/A   Mostly Cloudy
3:30 PM 33.8 °F 26.4 °F 24.8 °F 70% 30.06 in 6.2 mi NW 9.2 mph - N/A   Mostly Cloudy
4:00 PM 32.0 °F 23.6 °F 24.8 °F 75% 30.09 in 6.2 mi NW 10.4 mph - N/A   Mostly Cloudy
4:30 PM 32.0 °F 24.2 °F 24.8 °F 75% 30.09 in 6.2 mi WNW 9.2 mph - N/A   Mostly Cloudy
5:00 PM 32.0 °F 24.2 °F 24.8 °F 75% 30.09 in 6.2 mi WNW 9.2 mph - N/A   Mostly Cloudy
5:30 PM 32.0 °F 24.2 °F 24.8 °F 75% 30.09 in 6.2 mi WNW 9.2 mph - N/A   Mostly Cloudy
6:00 PM 30.2 °F 22.6 °F 24.8 °F 80% 30.09 in 6.2 mi NW 8.1 mph - N/A   Mostly Cloudy
6:30 PM 30.2 °F 21.9 °F 24.8 °F 80% 30.12 in 6.2 mi NW 9.2 mph - N/A   Mostly Cloudy
7:00 PM 30.2 °F 23.4 °F 24.8 °F 80% 30.12 in 6.2 mi NW 6.9 mph - N/A   Mostly Cloudy
7:30 PM 30.2 °F 24.3 °F 24.8 °F 80% 30.12 in 6.2 mi NNW 5.8 mph - N/A   Mostly Cloudy
8:00 PM 28.4 °F 21.2 °F 23.0 °F 80% 30.12 in 6.2 mi NW 6.9 mph - N/A   Mostly Cloudy
9:00 PM 28.4 °F 23.3 °F 23.0 °F 80% 30.15 in 6.2 mi NW 4.6 mph - N/A   Partly Cloudy
10:00 PM 26.6 °F - 21.2 °F 80% 30.15 in 6.2 mi Calm Calm - N/A   Partly Cloudy
11:00 PM 24.8 °F - 21.2 °F 86% 30.15 in 6.2 mi Calm Calm - N/A   Partly Cloudy